Location: Spangle
(47.4302°N, 117.3779°W)
Time: 12:01:56
(UTC+00:00)

ISS - Pass Details

Date: 24 April 2026
Orbit: 414 x 424 km, 51.6° (Epoch: 11 May)

Event Time Altitude Azimuth Distance (km) Brightness Sun altitude
Exits shadow 09:43:03 12° 100° (E) 1,370 -0.9 -24.4°
Drops below altitude 10° 09:43:32 10° 94° (E) 1,499 -0.6 -24.3°
Sets 09:46:07 0° 73° (ENE) 2,369 0.8 -24.1°
